Weather History for KDVP - November, 2011

Change the Weather History Date:

Thursday, November 17, 2011

  Actual Average (KOTG) Record (KOTG)
Temperature  
Mean Temperature 23 °F -  
Max Temperature 37 °F 38 °F 66 °F (2001)
Min Temperature 9 °F 23 °F 1 °F (2014)
Degree Days  
Heating Degree Days 42    
Moisture  
Dew Point 7 °F    
Average Humidity 52    
Maximum Humidity 78    
Minimum Humidity 28    
Precipitation  
Precipitation 0.00 in - - ()
Sea Level Pressure  
Sea Level Pressure 30.11 in    
Wind  
Wind Speed 8 mph (SSW)    
Max Wind Speed 16 mph    
Max Gust Speed -    
Visibility 10 miles    
Events      
Averages and records for this station are not official NWS values.
T = Trace of Precipitation, MM = Missing Value Source: NWS Daily Summary

Daily Weather History Graph

Daily Weather History Graph

Search for Another Location

Airport or City:

Trip Planner

Search our weather history database for the weather conditions in past years. The results will help you decide how hot, cold, wet, or windy it might be!

Date:

Astronomy

Nov. 17, 2011 Rise Set
Actual Time 7:20 AM CST 4:55 PM CST
Civil Twilight 6:49 AM CST 5:26 PM CST
Nautical Twilight 6:14 AM CST 6:01 PM CST
Astronomical Twilight 5:39 AM CST 6:35 PM CST
Moon 11:21 PM CST (11/17) 12:26 PM CST (11/17)
Length of Visible Light 10h 37m
Length of Day
9h 34m
Waning Gibbous, 59% of the Moon is Illuminated
Nov 17
Waning Gibbous
Nov 18
Last Quarter
Nov 25
New
Dec 2
First Quarter
Dec 10
Full

Hourly Weather History & Observations

Time (CST) Temp. Windchill Dew Point Humidity Pressure Visibility Wind Dir Wind Speed Gust Speed Precip Events Conditions
12:15 AM 16.7 °F 4.5 °F 5.5 °F 62% 30.20 in 10.0 mi WSW 10.4 mph - N/A   Clear
12:35 AM 16.5 °F 4.3 °F 5.7 °F 63% 30.20 in 10.0 mi West 10.4 mph - N/A   Scattered Clouds
12:55 AM 16.3 °F 4.9 °F 5.7 °F 63% 30.19 in 10.0 mi West 9.2 mph - N/A   Clear
1:15 AM 16.2 °F 3.9 °F 5.7 °F 64% 30.19 in 10.0 mi WSW 10.4 mph - N/A   Clear
1:35 AM 16.5 °F 4.3 °F 5.7 °F 63% 30.19 in 10.0 mi West 10.4 mph - N/A   Clear
1:55 AM 15.8 °F 4.2 °F 5.7 °F 64% 30.19 in 10.0 mi West 9.2 mph - N/A   Clear
2:15 AM 15.8 °F 4.2 °F 5.5 °F 64% 30.19 in 10.0 mi West 9.2 mph - N/A   Clear
2:35 AM 15.6 °F 3.2 °F 5.5 °F 64% 30.19 in 10.0 mi West 10.4 mph - N/A   Clear
2:55 AM 15.4 °F 4.6 °F 5.7 °F 65% 30.19 in 10.0 mi West 8.1 mph - N/A   Clear
3:15 AM 16.3 °F 6.7 °F 6.1 °F 64% 30.18 in 10.0 mi West 6.9 mph - N/A   Clear
3:35 AM 15.4 °F 5.6 °F 5.9 °F 66% 30.17 in 10.0 mi West 6.9 mph - N/A   Clear
3:55 AM 15.6 °F 5.9 °F 6.1 °F 66% 30.18 in 10.0 mi West 6.9 mph - N/A   Clear
4:15 AM 14.2 °F 4.1 °F 4.8 °F 66% 30.17 in 10.0 mi West 6.9 mph - N/A   Clear
4:35 AM 12.0 °F 2.7 °F 4.3 °F 71% 30.17 in 10.0 mi West 5.8 mph - N/A   Clear
4:55 AM 11.3 °F 0.7 °F 4.6 °F 75% 30.17 in 10.0 mi West 6.9 mph - N/A   Clear
5:35 AM 13.1 °F 4.0 °F 5.9 °F 73% 30.16 in 10.0 mi West 5.8 mph - N/A   Mostly Cloudy
5:55 AM 13.6 °F 4.6 °F 6.1 °F 72% 30.16 in 10.0 mi West 5.8 mph - N/A   Scattered Clouds
6:15 AM 12.4 °F 6.3 °F 4.3 °F 70% 30.17 in 10.0 mi SSW 3.5 mph - N/A   Clear
6:35 AM 9.5 °F -0.3 °F 3.9 °F 78% 30.17 in 10.0 mi SSW 5.8 mph - N/A   Clear
6:55 AM 12.0 °F 2.7 °F 5.0 °F 73% 30.17 in 10.0 mi SW 5.8 mph - N/A   Clear
7:15 AM 11.8 °F 2.5 °F 4.8 °F 73% 30.17 in 10.0 mi SW 5.8 mph - N/A   Clear
7:35 AM 12.2 °F 4.3 °F 4.8 °F 72% 30.17 in 10.0 mi SW 4.6 mph - N/A   Clear
7:55 AM 9.9 °F 3.4 °F 3.4 °F 75% 30.17 in 10.0 mi NE 3.5 mph - N/A   Clear
8:15 AM 12.6 °F 6.5 °F 5.4 °F 73% 30.18 in 10.0 mi NE 3.5 mph - N/A   Clear
8:35 AM 15.1 °F - 7.0 °F 70% 30.19 in 10.0 mi Calm Calm - N/A   Clear
8:55 AM 16.3 °F - 6.6 °F 66% 30.18 in 10.0 mi Calm Calm - N/A   Clear
9:15 AM 18.3 °F - 7.5 °F 63% 30.17 in 10.0 mi Calm Calm - N/A   Clear
9:35 AM 20.7 °F - 8.2 °F 59% 30.17 in 10.0 mi Calm Calm - N/A   Clear
9:55 AM 23.0 °F 18.4 °F 9.0 °F 55% 30.17 in 10.0 mi SSE 3.5 mph - N/A   Clear
10:15 AM 24.6 °F 20.3 °F 9.9 °F 54% 30.16 in 10.0 mi SSE 3.5 mph - N/A   Clear
10:35 AM 27.0 °F 21.6 °F 10.2 °F 49% 30.16 in 10.0 mi South 4.6 mph - N/A   Clear
10:55 AM 28.8 °F 22.6 °F 9.1 °F 44% 30.15 in 10.0 mi South 5.8 mph - N/A   Clear
11:15 AM 30.7 °F 26.0 °F 9.7 °F 41% 30.14 in 10.0 mi SSE 4.6 mph - N/A   Clear
11:35 AM 32.0 °F - 9.0 °F 38% 30.12 in 10.0 mi Calm Calm - N/A   Clear
11:55 AM 33.8 °F 29.6 °F 7.9 °F 34% 30.11 in 10.0 mi SSE 4.6 mph - N/A   Clear
12:15 PM 34.7 °F 30.6 °F 7.5 °F 32% 30.09 in 10.0 mi SSW 4.6 mph - N/A   Clear
12:35 PM 34.5 °F 28.6 °F 7.9 °F 33% 30.07 in 10.0 mi South 6.9 mph - N/A   Clear
12:55 PM 35.6 °F 29.9 °F 8.2 °F 32% 30.07 in 10.0 mi South 6.9 mph - N/A   Clear
1:15 PM 36.1 °F 30.6 °F 7.9 °F 31% 30.06 in 10.0 mi SE 6.9 mph - N/A   Clear
1:35 PM 36.3 °F 28.9 °F 7.3 °F 30% 30.04 in 10.0 mi SSE 10.4 mph - N/A   Clear
2:17 PM 37.0 °F 29.3 °F 7.5 °F 29% 30.02 in 10.0 mi SE 11.5 mph - N/A   Clear
2:35 PM 37.0 °F 29.3 °F 7.5 °F 29% 30.00 in 10.0 mi SE 11.5 mph - N/A   Clear
2:55 PM 36.5 °F 27.4 °F 6.8 °F 29% 29.99 in 10.0 mi SE 15.0 mph - N/A   Clear
3:15 PM 37.0 °F 28.5 °F 6.6 °F 28% 29.98 in 10.0 mi SSE 13.8 mph - N/A   Clear
3:35 PM 36.5 °F 27.0 °F 6.6 °F 29% 29.96 in 10.0 mi SE 16.1 mph - N/A   Clear
3:55 PM 36.1 °F 26.9 °F 6.8 °F 29% 29.95 in 10.0 mi SE 15.0 mph - N/A   Clear
4:15 PM 35.6 °F 26.2 °F 7.0 °F 30% 29.94 in 10.0 mi SE 15.0 mph - N/A   Clear
4:35 PM 34.7 °F 25.9 °F 7.2 °F 32% 29.93 in 10.0 mi SE 12.7 mph - N/A   Clear
4:55 PM 34.0 °F 25.0 °F 6.4 °F 32% 29.92 in 10.0 mi SE 12.7 mph - N/A   Clear
5:15 PM 33.8 °F 24.3 °F 6.4 °F 32% 29.91 in 10.0 mi SE 13.8 mph - N/A   Clear
5:35 PM 33.1 °F 23.9 °F 6.4 °F 33% 29.89 in 10.0 mi ESE 12.7 mph - N/A   Clear
5:55 PM 32.4 °F 22.5 °F 6.6 °F 34% 29.88 in 10.0 mi SE 13.8 mph - N/A   Clear
6:15 PM 32.0 °F 22.5 °F 6.8 °F 35% 29.88 in 10.0 mi SE 12.7 mph - N/A   Clear
6:35 PM 31.5 °F 21.4 °F 7.2 °F 36% 29.86 in 10.0 mi ESE 13.8 mph - N/A   Clear
6:55 PM 31.1 °F 21.4 °F 7.7 °F 37% 29.86 in 10.0 mi SE 12.7 mph - N/A   Clear
7:16 PM 30.9 °F 21.2 °F 8.6 °F 39% 29.85 in 10.0 mi SE 12.7 mph - N/A   Clear
7:35 PM 30.7 °F 20.9 °F 8.8 °F 40% 29.83 in 10.0 mi SE 12.7 mph - N/A   Clear
7:55 PM 31.3 °F 21.1 °F 9.5 °F 40% 29.82 in 10.0 mi SE 13.8 mph - N/A   Clear
8:15 PM 32.0 °F 22.5 °F 10.2 °F 40% 29.81 in 10.0 mi SSE 12.7 mph - N/A   Clear
8:35 PM 32.2 °F 22.3 °F 11.5 °F 42% 29.80 in 10.0 mi SSE 13.8 mph - N/A   Clear
8:55 PM 33.8 °F 23.5 °F 12.9 °F 42% 29.78 in 10.0 mi SSE 16.1 mph - N/A   Mostly Cloudy
9:15 PM 33.8 °F 24.3 °F 13.3 °F 43% 29.77 in 10.0 mi SSE 13.8 mph 20.7 mph N/A   Overcast
9:35 PM 33.8 °F 24.3 °F 14.0 °F 44% 29.76 in 10.0 mi SSE 13.8 mph - N/A   Mostly Cloudy
10:35 PM 36.5 °F 26.3 °F 18.5 °F 48% 29.72 in 10.0 mi South 18.4 mph 26.5 mph N/A   Clear
10:55 PM 36.1 °F 25.2 °F 19.2 °F 50% 29.71 in 10.0 mi South 20.7 mph 26.5 mph N/A   Clear
11:15 PM 36.1 °F 25.2 °F 19.9 °F 52% 29.70 in 10.0 mi South 20.7 mph 26.5 mph N/A   Clear
11:35 PM 36.9 °F 25.6 °F 20.3 °F 51% 29.68 in 10.0 mi South 23.0 mph 28.8 mph N/A   Clear
11:55 PM 37.4 °F 26.6 °F 20.7 °F 51% 29.67 in 10.0 mi South 21.9 mph 27.6 mph N/A   Clear